• In Deutschland
  • Länderverzeichnis
  • Für 7 Tage
  • Wassertemperatur
  • Satellitenkarten
  • Wetterkarte
  • Widgets
  • user-avatar
    Anmelden

    Stündliche Wetter Jelenia Góra

    Heute, 22 Juni, Freitag

    Zeit Temperatur Niederschläge Wind Luftdruck Luftfeuchtigkeit
    00:00 +10°C° 0 mm 3 m/S 732 mmHg 73%
    01:00 +9°C° 0 mm 3 m/S 732 mmHg 74%
    02:00 +8°C° 0 mm 3 m/S 732 mmHg 77%
    03:00 +8°C° 0 mm 3 m/S 732 mmHg 81%
    04:00 +7°C° 0 mm 3 m/S 732 mmHg 84%
    05:00 +7°C° 0 mm 4 m/S 732 mmHg 79%
    06:00 +8°C° 0 mm 5 m/S 732 mmHg 73%
    07:00 +9°C° 0 mm 5 m/S 732 mmHg 68%
    08:00 +10°C° 0 mm 6 m/S 732 mmHg 66%
    09:00 +10°C° 0 mm 6 m/S 732 mmHg 65%
    10:00 +11°C° 0 mm 6 m/S 732 mmHg 63%
    11:00 +11°C° 0,2 mm 6 m/S 732 mmHg 64%
    12:00 +13°C° 0,2 mm 6 m/S 732 mmHg 65%
    13:00 +13°C° 0,2 mm 5 m/S 732 mmHg 66%
    14:00 +13°C° 0,3 mm 6 m/S 732 mmHg 67%
    15:00 +13°C° 0,3 mm 6 m/S 732 mmHg 67%
    16:00 +13°C° 0,3 mm 6 m/S 732 mmHg 68%
    17:00 +13°C° 0,1 mm 5 m/S 732 mmHg 70%
    18:00 +13°C° 0,1 mm 4 m/S 733 mmHg 71%
    19:00 +12°C° 0,1 mm 4 m/S 733 mmHg 73%
    20:00 +11°C° 0,1 mm 4 m/S 733 mmHg 77%
    21:00 +10°C° 0,1 mm 3 m/S 733 mmHg 82%
    22:00 +9°C° 0,1 mm 3 m/S 733 mmHg 87%
    23:00 +9°C° 0 mm 3 m/S 733 mmHg 88%

    Morgen, 23 Juni, Samstag

    Zeit Temperatur Niederschläge Wind Luftdruck Luftfeuchtigkeit
    00:00 +8°C° 0 mm 3 m/S 733 mmHg 89%
    01:00 +8°C° 0 mm 3 m/S 733 mmHg 90%
    02:00 +7°C° 0 mm 4 m/S 733 mmHg 91%
    03:00 +7°C° 0 mm 4 m/S 733 mmHg 91%
    04:00 +6°C° 0 mm 4 m/S 734 mmHg 92%
    05:00 +7°C° 0,1 mm 4 m/S 734 mmHg 89%
    06:00 +8°C° 0,1 mm 5 m/S 734 mmHg 86%
    07:00 +8°C° 0,1 mm 5 m/S 734 mmHg 83%
    08:00 +9°C° 0,1 mm 6 m/S 734 mmHg 79%
    09:00 +10°C° 0,1 mm 6 m/S 734 mmHg 74%
    10:00 +10°C° 0,1 mm 6 m/S 734 mmHg 70%
    11:00 +10°C° 0,1 mm 6 m/S 734 mmHg 71%
    12:00 +10°C° 0,1 mm 6 m/S 734 mmHg 72%
    13:00 +11°C° 0,1 mm 6 m/S 734 mmHg 74%
    14:00 +11°C° 0,1 mm 6 m/S 734 mmHg 75%
    15:00 +11°C° 0,1 mm 6 m/S 733 mmHg 75%
    16:00 +11°C° 0,1 mm 6 m/S 733 mmHg 76%
    17:00 +11°C° 0 mm 6 m/S 733 mmHg 77%
    18:00 +12°C° 0 mm 5 m/S 733 mmHg 77%
    19:00 +12°C° 0 mm 5 m/S 733 mmHg 78%
    20:00 +11°C° 0 mm 4 m/S 733 mmHg 82%
    21:00 +10°C° 0 mm 4 m/S 733 mmHg 87%
    22:00 +9°C° 0 mm 3 m/S 734 mmHg 92%
    23:00 +9°C° 0,1 mm 3 m/S 734 mmHg 93%

    übermorgen, 24 Juni, Sonntag

    Zeit Temperatur Niederschläge Wind Luftdruck Luftfeuchtigkeit
    00:00 +9°C° 0,1 mm 3 m/S 734 mmHg 94%
    01:00 +9°C° 0,1 mm 3 m/S 734 mmHg 95%
    02:00 +9°C° 0 mm 3 m/S 733 mmHg 95%
    03:00 +9°C° 0 mm 3 m/S 733 mmHg 96%
    04:00 +8°C° 0 mm 3 m/S 733 mmHg 96%
    05:00 +9°C° 0 mm 3 m/S 733 mmHg 93%
    06:00 +10°C° 0 mm 3 m/S 734 mmHg 90%
    07:00 +11°C° 0 mm 3 m/S 734 mmHg 87%
    08:00 +12°C° 0,1 mm 3 m/S 734 mmHg 84%
    09:00 +13°C° 0,1 mm 4 m/S 734 mmHg 80%
    10:00 +13°C° 0,1 mm 4 m/S 734 mmHg 76%
    11:00 +14°C° 0,2 mm 4 m/S 734 mmHg 72%
    12:00 +15°C° 0,2 mm 4 m/S 734 mmHg 69%
    13:00 +16°C° 0,2 mm 5 m/S 734 mmHg 65%
    14:00 +16°C° 0,1 mm 5 m/S 734 mmHg 64%
    15:00 +16°C° 0,1 mm 5 m/S 734 mmHg 63%
    16:00 +17°C° 0,1 mm 5 m/S 733 mmHg 62%
    17:00 +17°C° 0,1 mm 4 m/S 733 mmHg 67%
    18:00 +15°C° 0,1 mm 4 m/S 733 mmHg 72%
    19:00 +14°C° 0,1 mm 3 m/S 733 mmHg 77%
    20:00 +12°C° 0,1 mm 3 m/S 733 mmHg 82%
    21:00 +12°C° 0,1 mm 2 m/S 733 mmHg 88%
    22:00 +10°C° 0,1 mm 2 m/S 734 mmHg 93%
    23:00 +10°C° 0,1 mm 2 m/S 734 mmHg 93%

    25 Juni, Montag

    Zeit Temperatur Niederschläge Wind Luftdruck Luftfeuchtigkeit
    00:00 +9°C° 0,1 mm 2 m/S 734 mmHg 94%
    01:00 +9°C° 0,1 mm 2 m/S 734 mmHg 95%
    02:00 +9°C° 0 mm 2 m/S 734 mmHg 95%
    03:00 +8°C° 0 mm 2 m/S 734 mmHg 95%
    04:00 +9°C° 0 mm 1 m/S 734 mmHg 95%
    05:00 +11°C° 0 mm 1 m/S 734 mmHg 91%
    06:00 +12°C° 0 mm 1 m/S 734 mmHg 87%
    07:00 +14°C° 0 mm 2 m/S 735 mmHg 82%
    08:00 +15°C° 0,2 mm 2 m/S 735 mmHg 76%
    09:00 +17°C° 0,2 mm 2 m/S 735 mmHg 69%
    10:00 +18°C° 0,2 mm 2 m/S 735 mmHg 62%
    11:00 +19°C° 0,2 mm 2 m/S 735 mmHg 58%
    12:00 +20°C° 0,2 mm 3 m/S 735 mmHg 54%
    13:00 +21°C° 0,2 mm 3 m/S 735 mmHg 50%
    14:00 +21°C° 0,1 mm 3 m/S 735 mmHg 50%
    15:00 +21°C° 0,1 mm 3 m/S 735 mmHg 51%
    16:00 +21°C° 0,1 mm 3 m/S 735 mmHg 51%
    17:00 +20°C° 0,1 mm 3 m/S 735 mmHg 56%
    18:00 +19°C° 0,1 mm 2 m/S 735 mmHg 61%
    19:00 +18°C° 0,1 mm 2 m/S 735 mmHg 67%
    20:00 +16°C° 0 mm 2 m/S 736 mmHg 70%
    21:00 +14°C° 0 mm 1 m/S 736 mmHg 74%
    22:00 +13°C° 0 mm 1 m/S 736 mmHg 77%
    23:00 +12°C° 0 mm 1 m/S 736 mmHg 77%

    26 Juni, Dienstag

    Zeit Temperatur Niederschläge Wind Luftdruck Luftfeuchtigkeit
    00:00 +12°C° 0 mm 1 m/S 736 mmHg 77%
    01:00 +12°C° 0 mm 1 m/S 736 mmHg 77%
    02:00 +12°C° 0 mm 1 m/S 736 mmHg 77%
    03:00 +12°C° 0 mm 1 m/S 736 mmHg 77%
    04:00 +11°C° 0 mm 1 m/S 736 mmHg 77%
    05:00 +13°C° 0 mm 1 m/S 736 mmHg 71%
    06:00 +16°C° 0 mm 1 m/S 736 mmHg 65%
    07:00 +19°C° 0 mm 1 m/S 737 mmHg 59%
    08:00 +20°C° 0 mm 1 m/S 737 mmHg 54%
    09:00 +20°C° 0 mm 2 m/S 737 mmHg 50%
    10:00 +21°C° 0 mm 2 m/S 737 mmHg 45%
    11:00 +23°C° 0 mm 2 m/S 737 mmHg 45%
    12:00 +23°C° 0 mm 2 m/S 736 mmHg 45%
    13:00 +23°C° 0 mm 2 m/S 736 mmHg 45%
    14:00 +23°C° 0 mm 2 m/S 736 mmHg 45%
    15:00 +22°C° 0 mm 3 m/S 736 mmHg 46%
    16:00 +24°C° 0 mm 3 m/S 736 mmHg 46%
    17:00 +23°C° 0 mm 2 m/S 736 mmHg 53%
    18:00 +21°C° 0 mm 2 m/S 736 mmHg 59%
    19:00 +20°C° 0 mm 2 m/S 736 mmHg 66%
    20:00 +19°C° 0 mm 1 m/S 736 mmHg 71%
    21:00 +16°C° 0 mm 1 m/S 735 mmHg 76%
    22:00 +15°C° 0 mm 1 m/S 735 mmHg 81%
    23:00 +14°C° 0 mm 1 m/S 735 mmHg 81%

    27 Juni, Mittwoch

    Zeit Temperatur Niederschläge Wind Luftdruck Luftfeuchtigkeit
    00:00 +14°C° 0 mm 1 m/S 735 mmHg 82%
    01:00 +14°C° 0 mm 1 m/S 735 mmHg 83%
    02:00 +13°C° 0 mm 1 m/S 735 mmHg 84%
    03:00 +13°C° 0 mm 1 m/S 735 mmHg 86%
    04:00 +13°C° 0 mm 1 m/S 735 mmHg 87%
    05:00 +14°C° 0 mm 1 m/S 735 mmHg 81%
    06:00 +16°C° 0 mm 2 m/S 735 mmHg 76%
    07:00 +18°C° 0 mm 2 m/S 736 mmHg 70%
    08:00 +19°C° 0 mm 3 m/S 736 mmHg 64%
    09:00 +21°C° 0 mm 3 m/S 736 mmHg 57%
    10:00 +22°C° 0 mm 4 m/S 736 mmHg 51%
    11:00 +23°C° 0,1 mm 4 m/S 735 mmHg 50%
    12:00 +23°C° 0,1 mm 4 m/S 735 mmHg 48%
    13:00 +25°C° 0,1 mm 4 m/S 735 mmHg 47%
    14:00 +23°C° 0,2 mm 4 m/S 734 mmHg 52%
    15:00 +22°C° 0,2 mm 3 m/S 734 mmHg 57%
    16:00 +22°C° 0,2 mm 3 m/S 734 mmHg 63%
    17:00 +21°C° 0,2 mm 3 m/S 734 mmHg 65%
    18:00 +21°C° 0,2 mm 3 m/S 734 mmHg 67%
    19:00 +20°C° 0,2 mm 2 m/S 734 mmHg 70%
    20:00 +18°C° 0,1 mm 2 m/S 734 mmHg 75%
    21:00 +17°C° 0,1 mm 2 m/S 734 mmHg 80%
    22:00 +15°C° 0,1 mm 1 m/S 734 mmHg 85%
    23:00 +14°C° 0 mm 1 m/S 734 mmHg 87%
    Mehr zeigen